Fulton, NY

1:22 AM EDT on March 24, 2017 (GMT -0400)
Oswego County

Weather History for KFZY - August, 2014

Change the Weather History Date:

Tuesday, August 5, 2014

  Actual Average (KSYR) Record (KSYR)
Temperature  
Mean Temperature 68 °F -  
Max Temperature 77 °F 80 °F 96 °F (1955)
Min Temperature 62 °F 59 °F 45 °F (1951)
Cooling Degree Days 4    
Growing Degree Days 18 (Base 50)    
Moisture  
Dew Point 62 °F    
Average Humidity 84    
Maximum Humidity 97    
Minimum Humidity 66    
Precipitation  
Precipitation 0.00 in - - ()
Sea Level Pressure  
Sea Level Pressure 30.02 in    
Wind  
Wind Speed 2 mph (WNW)    
Max Wind Speed 9 mph    
Max Gust Speed -    
Visibility 6 miles    
Events      
Averages and records for this station are not official NWS values.
T = Trace of Precipitation, MM = Missing Value Source: NWS Daily Summary

Daily Weather History Graph

Daily Weather History Graph

Search for Another Location

Airport or City:

Trip Planner

Search our weather history database for the weather conditions in past years. The results will help you decide how hot, cold, wet, or windy it might be!

Date:

Astronomy

Aug. 05, 2014 Rise Set
Actual Time 5:59 AM EDT 8:22 PM EDT
Civil Twilight 5:27 AM EDT 8:54 PM EDT
Nautical Twilight 4:47 AM EDT 9:34 PM EDT
Astronomical Twilight 4:03 AM EDT 10:18 PM EDT
Moon 3:36 PM EDT (8/5) 12:46 AM EDT (8/5)
Length of Visible Light 15h 26m
Length of Day
14h 22m
Waxing Gibbous, 67% of the Moon is Illuminated
Aug 5
Waxing Gibbous
Aug 10
Full
Aug 17
Last Quarter
Aug 25
New
Sep 2
First Quarter

Hourly Weather History & Observations

Time (EDT) Temp. Dew Point Humidity Pressure Visibility Wind Dir Wind Speed Gust Speed Precip Events Conditions
12:54 AM 64.0 °F 62.1 °F 93% 30.04 in 4.0 mi Calm Calm - N/A   Mostly Cloudy
1:54 AM 64.0 °F 61.0 °F 90% 30.03 in 4.0 mi Calm Calm - N/A   Mostly Cloudy
2:14 AM 64.0 °F 61.0 °F 90% 30.03 in 2.0 mi Calm Calm - N/A   Scattered Clouds
2:25 AM 63.0 °F 61.0 °F 93% 30.03 in 4.0 mi Calm Calm - N/A   Scattered Clouds
2:54 AM 64.0 °F 62.1 °F 93% 30.02 in 4.0 mi Calm Calm - N/A   Overcast
3:06 AM 64.0 °F 62.1 °F 93% 30.03 in 2.5 mi Calm Calm - N/A   Overcast
3:51 AM 62.6 °F 60.8 °F 94% 30.03 in 1.5 mi Calm Calm - N/A   Clear
3:54 AM 63.0 °F 60.1 °F 90% 30.02 in 1.8 mi Calm Calm - N/A   Clear
4:20 AM 62.1 °F 60.1 °F 93% 30.02 in 2.0 mi Calm Calm - N/A   Mostly Cloudy
4:54 AM 62.1 °F 60.1 °F 93% 30.02 in 1.5 mi Calm Calm - N/A   Mostly Cloudy
5:03 AM 63.0 °F 61.0 °F 93% 30.03 in 3.0 mi Calm Calm - N/A   Overcast
5:54 AM 62.1 °F 60.1 °F 93% 30.04 in 2.5 mi Calm Calm - N/A   Clear
5:56 AM 62.1 °F 60.1 °F 93% 30.04 in 0.8 mi Calm Calm - N/A   Clear
6:14 AM 62.1 °F 60.1 °F 93% 30.04 in 1.2 mi Calm Calm - N/A   Clear
6:45 AM 63.0 °F 62.1 °F 97% 30.04 in 2.5 mi North - - N/A   Clear
6:54 AM 64.0 °F 62.1 °F 93% 30.04 in 2.5 mi North - - N/A   Clear
7:54 AM 66.9 °F 64.0 °F 90% 30.03 in 5.0 mi Calm Calm - N/A   Clear
8:54 AM 71.1 °F 64.0 °F 78% 30.03 in 7.0 mi SSW 6.9 mph - N/A   Partly Cloudy
9:54 AM 73.9 °F 64.0 °F 71% 30.03 in 10.0 mi WSW 8.1 mph - N/A   Clear
10:44 AM 75.0 °F 64.9 °F 71% 30.04 in 9.0 mi WNW 8.1 mph - N/A   Mostly Cloudy
10:54 AM 75.0 °F 64.9 °F 71% 30.04 in 9.0 mi WNW 8.1 mph - N/A   Mostly Cloudy
11:54 AM 75.0 °F 64.9 °F 71% 30.04 in 8.0 mi WNW 8.1 mph - N/A   Mostly Cloudy
12:04 PM 75.9 °F 66.0 °F 71% 30.04 in 8.0 mi Variable 4.6 mph - N/A   Scattered Clouds
12:54 PM 73.0 °F 64.9 °F 76% 30.03 in 7.0 mi WNW 8.1 mph - N/A   Clear
1:54 PM 73.9 °F 64.9 °F 73% 30.02 in 7.0 mi NNW 9.2 mph - N/A   Mostly Cloudy
2:54 PM 73.9 °F 62.1 °F 66% 30.01 in 9.0 mi West 9.2 mph - N/A   Clear
3:54 PM 73.0 °F 61.0 °F 66% 29.99 in 10.0 mi NW 9.2 mph - N/A   Clear
4:54 PM 71.1 °F 62.1 °F 73% 29.98 in 10.0 mi West 5.8 mph - N/A   Mostly Cloudy
5:54 PM 71.1 °F 63.0 °F 75% 30.00 in 10.0 mi West 5.8 mph - N/A   Scattered Clouds
6:54 PM 69.1 °F 62.1 °F 78% 29.99 in 10.0 mi WSW 5.8 mph - N/A   Partly Cloudy
7:54 PM 68.0 °F 62.1 °F 81% 29.99 in 9.0 mi WSW 4.6 mph - N/A   Mostly Cloudy
8:54 PM 66.0 °F 62.1 °F 87% 29.98 in 10.0 mi Calm Calm - N/A   Scattered Clouds
9:54 PM 64.9 °F 62.1 °F 90% 29.99 in 8.0 mi Calm Calm - N/A   Mostly Cloudy
10:54 PM 66.0 °F 62.1 °F 87% 29.97 in 8.0 mi NW 3.5 mph - N/A   Mostly Cloudy